This is the latest recevied weather packets stored in our database for station/object YT1XN-8. If no packets are shown the sender has not sent any weather packets the latest 1 day(s).
| Time | Temp. | Humidity | Pressure | Rain* | Wind** | Luminosity | Snow |
|---|---|---|---|---|---|---|---|
| 1778019642 | 17.22° C | 62% | 1014 hPa | 0 mm | 0.89 m/s, 5° | - | - |
| 1778019220 | 17.22° C | 63% | 1013.9 hPa | 0 mm | 0.89 m/s, 349° | - | - |
| 1778019042 | 17.22° C | 63% | 1014 hPa | 0 mm | 0.89 m/s, 5° | - | - |
| 1778018560 | 16.67° C | 63% | 1014 hPa | 0 mm | 2.24 m/s, 341° | - | - |
| 1778018442 | 16.67° C | 63% | 1013.9 hPa | 0 mm | 0.89 m/s, 355° | - | - |
| 1778017900 | 16.67° C | 63% | 1014 hPa | 0 mm | 0.45 m/s, 360° | - | - |
| 1778017841 | 16.67° C | 62% | 1014 hPa | 0 mm | 1.34 m/s, 355° | - | - |
| 1778017240 | 17.22° C | 61% | 1014 hPa | 0 mm | 0 m/s | - | - |
| 1778016641 | 17.22° C | 58% | 1014 hPa | 0 mm | 0 m/s | - | - |
| 1778016580 | 17.78° C | 58% | 1014 hPa | 0 mm | 0 m/s | - | - |
| 1778016041 | 17.78° C | 56% | 1014.1 hPa | 0 mm | 0.45 m/s, 291° | - | - |
| 1778015920 | 17.78° C | 55% | 1014.1 hPa | 0 mm | 0 m/s | - | - |
| 1778015441 | 18.33° C | 55% | 1014 hPa | 0 mm | 1.34 m/s, 275° | - | - |
| 1778015260 | 18.33° C | 54% | 1013.9 hPa | 0 mm | 0.45 m/s, 312° | - | - |
| 1778014841 | 18.33° C | 53% | 1014 hPa | 0 mm | 1.34 m/s, 298° | - | - |
| 1778014600 | 18.89° C | 53% | 1014 hPa | 0 mm | 0.89 m/s, 269° | - | - |
| 1778014241 | 18.89° C | 52% | 1013.9 hPa | 0 mm | 1.34 m/s, 286° | - | - |
| 1778013939 | 18.89° C | 51% | 1013.8 hPa | 0 mm | 1.34 m/s, 273° | - | - |
| 1778013641 | 18.89° C | 50% | 1013.7 hPa | 0 mm | 0.89 m/s, 277° | - | - |
| 1778013279 | 19.44° C | 49% | 1013.6 hPa | 0 mm | 1.79 m/s, 297° | - | - |
| 1778013041 | 19.44° C | 49% | 1013.5 hPa | 0 mm | 1.79 m/s, 263° | - | - |
| 1778012619 | 19.44° C | 49% | 1013.3 hPa | 0 mm | 2.24 m/s, 316° | - | - |
| 1778012441 | 19.44° C | 48% | 1013.3 hPa | 0 mm | 1.79 m/s, 267° | - | - |
| 1778011959 | 19.44° C | 49% | 1013.2 hPa | 0 mm | 4.02 m/s, 284° | - | - |
| 1778011841 | 19.44° C | 48% | 1013.2 hPa | 0 mm | 0.89 m/s, 309° | - | - |
* Rain latest hour (hover to see other rain measurements)
** Current wind speed in m/s (hover to see current wind gust speed)